WP4MXZ San Sebastian PR US current weather conditions

sailwx.info

Wind from 164

Air temperature 25.6° C
Dewpoint 25.6° C

Last reported at 2014-Jul-23 01:33 UTC.
Time now 2014-Jul-23 03:21 UTC

Location: N 18°20' W 067°00'.
View on Google Maps.

See reports from other nearby stations

  
Tides and Currents Weather Stations Pressure Air Temp Water Temp Dewpoint Dewpoint Depression Visibility Wind Speed Wind Dir Waves Ship Positions
date/time (UTC)wind fromknots sea level pressurealtimeterstation pressurevisibilityair tempwater tempwave heightnotes
2014-Jul-23 01:33 164 25.6
2014-Jul-23 01:03 085 26.1
2014-Jul-23 00:33 067 26.7
2014-Jul-23 00:03 067 27.2
2014-Jul-22 23:33 065 27.2
2014-Jul-22 23:03 043 27.8
2014-Jul-22 22:33 077 1 gusting 4 28.3
2014-Jul-22 22:03 115 28.9
2014-Jul-22 21:33 283 0 gusting 6 28.9
2014-Jul-22 21:03 216 2 gusting 8 29.4
2014-Jul-22 20:33 180 30.0
2014-Jul-22 20:03 156 5 gusting 8 30.0
2014-Jul-22 19:33 123 5 gusting 9 30.6
2014-Jul-22 19:03 171 3 gusting 12 30.0
2014-Jul-22 18:33 138 5 gusting 7 30.6
2014-Jul-22 18:03 181 0 gusting 6 30.0
2014-Jul-22 17:33 129 5 gusting 7 31.7
2014-Jul-22 17:03 118 31.1
2014-Jul-22 16:33 121 1 gusting 7 31.1
2014-Jul-22 16:03 154 4 gusting 7 31.1
2014-Jul-22 15:33 101 2 gusting 10 31.1
2014-Jul-22 15:03 115 1 gusting 9 30.6
2014-Jul-22 14:33 186 5 gusting 9 30.0
2014-Jul-22 14:03 117 6 gusting 15 29.4
2014-Jul-22 13:33 164 2 gusting 8 28.9
2014-Jul-22 13:03 196 28.3
2014-Jul-22 12:33 196 27.2
2014-Jul-22 12:03 191 25.6
2014-Jul-22 11:33 192 23.9
2014-Jul-22 11:03 192 22.2
2014-Jul-22 10:33 192 21.1
2014-Jul-22 10:03 192 21.1
2014-Jul-22 09:33 192 21.1
2014-Jul-22 09:03 191 21.1
2014-Jul-22 08:33 191 21.1
2014-Jul-22 08:03 191 21.1
2014-Jul-22 07:33 191 21.7
2014-Jul-22 07:03 191 21.7
2014-Jul-22 06:33 191 21.7
2014-Jul-22 06:03 191 22.2
2014-Jul-22 05:33 191 22.2
2014-Jul-22 05:03 191 22.2
2014-Jul-22 04:33 191 22.8
2014-Jul-22 04:03 191 22.8
2014-Jul-22 03:33 191 23.9
2014-Jul-22 03:03 192 23.3
2014-Jul-22 02:33 192 23.3
2014-Jul-22 02:03 192 23.3
2014-Jul-22 01:33 192 23.9
2014-Jul-22 01:03 192 23.9
2014-Jul-22 00:33 193 24.4
2014-Jul-22 00:03 193 25.0
2014-Jul-21 23:33 193 25.0
2014-Jul-21 23:03 192 25.6
2014-Jul-21 22:33 192 25.6
2014-Jul-21 22:03 208 25.6
2014-Jul-21 21:33 208 25.6
2014-Jul-21 21:03 261 25.6
2014-Jul-21 20:33 215 2 gusting 5 27.2
2014-Jul-21 20:03 213 27.2
2014-Jul-21 19:33 206 27.2
2014-Jul-21 19:03 217 26.7
2014-Jul-21 18:33 223 1 gusting 6 27.8
2014-Jul-21 18:03 271 4 gusting 7 29.4
2014-Jul-21 17:33 134 3 gusting 6 30.6
2014-Jul-21 17:03 100 2 gusting 12 31.7
2014-Jul-21 16:33 073 3 gusting 6 31.7
2014-Jul-21 16:03 195 0 gusting 4 32.8
2014-Jul-21 15:33 033 0 gusting 6 32.2
2014-Jul-21 15:03 176 31.7
2014-Jul-21 14:33 025 31.1
2014-Jul-21 14:03 033 30.0
2014-Jul-21 13:33 137 30.0
2014-Jul-21 13:03 057 28.3
2014-Jul-21 12:33 057 26.1
2014-Jul-21 12:03 210 25.0
2014-Jul-21 11:33 210 23.3
2014-Jul-21 11:03 210 22.2
2014-Jul-21 10:33 210 21.7
2014-Jul-21 10:03 210 21.7
2014-Jul-21 09:33 210 21.7
2014-Jul-21 09:03 210 21.7
2014-Jul-21 08:33 210 22.2
2014-Jul-21 08:03 210 22.2
2014-Jul-21 07:33 210 22.8
2014-Jul-21 07:03 210 22.8
2014-Jul-21 06:33 210 22.8
2014-Jul-21 06:03 210 23.3
2014-Jul-21 05:33 210 23.3
2014-Jul-21 05:03 210 23.9
2014-Jul-21 04:33 210 24.4
2014-Jul-21 04:03 210 25.0
2014-Jul-21 03:33 210 25.6
2014-Jul-21 03:03 224 25.6